Hourly Weather Brashov

Today, 7 May, Friday

Time Temperature Precipitation Wind Pressure Humidity
00:00 +7°C° 0 mm 1 mps 683 mmHg 85%
01:00 +7°C° 0 mm 1 mps 683 mmHg 85%
02:00 +6°C° 0 mm 1 mps 683 mmHg 84%
03:00 +7°C° 0 mm 1 mps 682 mmHg 84%
04:00 +7°C° 0 mm 1 mps 682 mmHg 85%
05:00 +7°C° 0 mm 1 mps 682 mmHg 85%
06:00 +9°C° 0 mm 1 mps 682 mmHg 80%
07:00 +10°C° 0 mm 1 mps 683 mmHg 74%
08:00 +12°C° 0 mm 1 mps 683 mmHg 69%
09:00 +13°C° 0 mm 2 mps 683 mmHg 63%
10:00 +15°C° 0 mm 2 mps 683 mmHg 57%
11:00 +17°C° 0 mm 2 mps 683 mmHg 52%
12:00 +17°C° 0 mm 3 mps 682 mmHg 51%
13:00 +18°C° 0 mm 4 mps 682 mmHg 51%
14:00 +18°C° 0 mm 4 mps 682 mmHg 51%
15:00 +17°C° 0 mm 4 mps 681 mmHg 55%
16:00 +17°C° 0 mm 3 mps 681 mmHg 58%
17:00 +16°C° 0 mm 2 mps 680 mmHg 62%
18:00 +14°C° 0 mm 2 mps 680 mmHg 69%
19:00 +12°C° 0 mm 2 mps 680 mmHg 77%
20:00 +11°C° 0 mm 1 mps 680 mmHg 84%
21:00 +10°C° 0.1 mm 1 mps 680 mmHg 86%
22:00 +10°C° 0.1 mm 1 mps 680 mmHg 88%
23:00 +10°C° 0.1 mm 1 mps 680 mmHg 90%

Tomorrow, 8 May, Saturday

Time Temperature Precipitation Wind Pressure Humidity
00:00 +9°C° 0.6 mm 1 mps 681 mmHg 92%
01:00 +8°C° 0.6 mm 2 mps 681 mmHg 94%
02:00 +8°C° 0.6 mm 3 mps 682 mmHg 96%
03:00 +7°C° 0.2 mm 3 mps 682 mmHg 96%
04:00 +5°C° 0.2 mm 3 mps 682 mmHg 95%
05:00 +5°C° 0.2 mm 3 mps 683 mmHg 95%
06:00 +5°C° 0.1 mm 3 mps 683 mmHg 94%
07:00 +5°C° 0.1 mm 4 mps 684 mmHg 93%
08:00 +5°C° 0.1 mm 4 mps 684 mmHg 93%
09:00 +4°C° 0.1 mm 4 mps 685 mmHg 88%
10:00 +4°C° 0.1 mm 4 mps 685 mmHg 83%
11:00 +4°C° 0.1 mm 4 mps 686 mmHg 79%
12:00 +5°C° 0 mm 4 mps 686 mmHg 70%
13:00 +7°C° 0 mm 5 mps 686 mmHg 62%
14:00 +8°C° 0 mm 5 mps 686 mmHg 53%
15:00 +8°C° 0 mm 5 mps 686 mmHg 53%
16:00 +8°C° 0 mm 5 mps 686 mmHg 52%
17:00 +8°C° 0 mm 5 mps 687 mmHg 52%
18:00 +6°C° 0 mm 4 mps 687 mmHg 61%
19:00 +5°C° 0 mm 3 mps 687 mmHg 69%
20:00 +4°C° 0 mm 2 mps 688 mmHg 78%
21:00 +4°C° 0 mm 1 mps 688 mmHg 81%
22:00 +4°C° 0 mm 1 mps 689 mmHg 83%
23:00 +3°C° 0 mm 1 mps 689 mmHg 86%

Day after tomorrow, 9 May, Sunday

Time Temperature Precipitation Wind Pressure Humidity
00:00 +3°C° 0 mm 1 mps 689 mmHg 85%
01:00 +3°C° 0 mm 1 mps 689 mmHg 83%
02:00 +3°C° 0 mm 1 mps 690 mmHg 82%
03:00 +2°C° 0 mm 1 mps 690 mmHg 84%
04:00 +2°C° 0 mm 1 mps 690 mmHg 86%
05:00 +1°C° 0 mm 1 mps 690 mmHg 88%
06:00 +4°C° 0 mm 1 mps 691 mmHg 77%
07:00 +6°C° 0 mm 1 mps 691 mmHg 67%
08:00 +8°C° 0 mm 1 mps 692 mmHg 57%
09:00 +10°C° 0 mm 1 mps 692 mmHg 50%
10:00 +11°C° 0 mm 1 mps 692 mmHg 44%
11:00 +13°C° 0 mm 1 mps 692 mmHg 38%
12:00 +14°C° 0 mm 1 mps 691 mmHg 37%
13:00 +14°C° 0 mm 1 mps 691 mmHg 37%
14:00 +15°C° 0 mm 2 mps 691 mmHg 37%
15:00 +15°C° 0 mm 1 mps 691 mmHg 40%
16:00 +14°C° 0 mm 1 mps 691 mmHg 43%
17:00 +14°C° 0 mm 1 mps 691 mmHg 46%
18:00 +12°C° 0 mm 2 mps 691 mmHg 57%
19:00 +9°C° 0 mm 2 mps 690 mmHg 67%
20:00 +6°C° 0 mm 2 mps 690 mmHg 78%
21:00 +6°C° 0 mm 2 mps 691 mmHg 81%
22:00 +5°C° 0 mm 2 mps 691 mmHg 84%
23:00 +4°C° 0 mm 2 mps 691 mmHg 87%

10 May, Monday

Time Temperature Precipitation Wind Pressure Humidity
00:00 +4°C° 0 mm 2 mps 691 mmHg 87%
01:00 +4°C° 0 mm 2 mps 690 mmHg 88%
02:00 +3°C° 0 mm 2 mps 690 mmHg 88%
03:00 +3°C° 0 mm 2 mps 690 mmHg 88%
04:00 +3°C° 0 mm 2 mps 690 mmHg 88%
05:00 +2°C° 0 mm 2 mps 690 mmHg 87%
06:00 +5°C° 0 mm 2 mps 690 mmHg 77%
07:00 +7°C° 0 mm 2 mps 690 mmHg 67%
08:00 +10°C° 0 mm 2 mps 691 mmHg 58%
09:00 +11°C° 0 mm 3 mps 691 mmHg 53%
10:00 +13°C° 0 mm 3 mps 691 mmHg 48%
11:00 +16°C° 0 mm 3 mps 691 mmHg 43%
12:00 +16°C° 0 mm 3 mps 691 mmHg 42%
13:00 +17°C° 0 mm 3 mps 690 mmHg 41%
14:00 +18°C° 0 mm 3 mps 690 mmHg 40%
15:00 +17°C° 0 mm 3 mps 690 mmHg 43%
16:00 +17°C° 0 mm 3 mps 690 mmHg 46%
17:00 +17°C° 0 mm 3 mps 689 mmHg 49%
18:00 +13°C° 0 mm 3 mps 689 mmHg 58%
19:00 +10°C° 0 mm 2 mps 689 mmHg 68%
20:00 +8°C° 0 mm 2 mps 689 mmHg 77%
21:00 +7°C° 0 mm 2 mps 689 mmHg 79%
22:00 +6°C° 0 mm 2 mps 689 mmHg 80%
23:00 +5°C° 0 mm 2 mps 689 mmHg 82%

11 May, Tuesday

Time Temperature Precipitation Wind Pressure Humidity
00:00 +5°C° 0 mm 2 mps 689 mmHg 84%
01:00 +5°C° 0 mm 2 mps 688 mmHg 85%
02:00 +4°C° 0 mm 2 mps 688 mmHg 87%
03:00 +4°C° 0 mm 2 mps 688 mmHg 87%
04:00 +4°C° 0 mm 2 mps 688 mmHg 87%
05:00 +4°C° 0 mm 2 mps 688 mmHg 87%
06:00 +6°C° 0 mm 2 mps 688 mmHg 77%
07:00 +9°C° 0 mm 2 mps 688 mmHg 67%
08:00 +12°C° 0 mm 2 mps 688 mmHg 57%
09:00 +14°C° 0 mm 2 mps 688 mmHg 52%
10:00 +16°C° 0 mm 3 mps 688 mmHg 46%
11:00 +17°C° 0 mm 3 mps 688 mmHg 41%
12:00 +18°C° 0 mm 3 mps 688 mmHg 40%
13:00 +19°C° 0 mm 3 mps 688 mmHg 38%
14:00 +20°C° 0 mm 3 mps 687 mmHg 37%
15:00 +19°C° 0 mm 3 mps 687 mmHg 40%
16:00 +19°C° 0 mm 3 mps 687 mmHg 44%
17:00 +18°C° 0 mm 3 mps 686 mmHg 47%
18:00 +14°C° 0 mm 3 mps 686 mmHg 56%
19:00 +12°C° 0 mm 3 mps 686 mmHg 66%
20:00 +9°C° 0 mm 2 mps 685 mmHg 75%
21:00 +8°C° 0 mm 2 mps 685 mmHg 76%
22:00 +8°C° 0 mm 2 mps 685 mmHg 78%
23:00 +7°C° 0 mm 2 mps 685 mmHg 80%

12 May, Wednesday

Time Temperature Precipitation Wind Pressure Humidity
00:00 +7°C° 0 mm 2 mps 685 mmHg 80%
01:00 +6°C° 0 mm 2 mps 684 mmHg 81%
02:00 +6°C° 0 mm 2 mps 684 mmHg 82%
03:00 +6°C° 0 mm 2 mps 684 mmHg 83%
04:00 +6°C° 0 mm 2 mps 683 mmHg 85%
05:00 +6°C° 0 mm 2 mps 683 mmHg 86%
06:00 +8°C° 0 mm 2 mps 683 mmHg 80%
07:00 +10°C° 0 mm 2 mps 683 mmHg 74%
08:00 +13°C° 0 mm 3 mps 683 mmHg 68%
09:00 +14°C° 0 mm 3 mps 683 mmHg 64%
10:00 +16°C° 0 mm 3 mps 682 mmHg 60%
11:00 +17°C° 0 mm 3 mps 682 mmHg 56%
12:00 +17°C° 0 mm 4 mps 682 mmHg 57%
13:00 +15°C° 0 mm 4 mps 681 mmHg 58%
14:00 +15°C° 0 mm 4 mps 681 mmHg 59%
15:00 +15°C° 0 mm 4 mps 681 mmHg 62%
16:00 +14°C° 0 mm 4 mps 680 mmHg 64%
17:00 +13°C° 0 mm 4 mps 680 mmHg 66%
18:00 +11°C° 0 mm 4 mps 680 mmHg 71%
19:00 +10°C° 0 mm 3 mps 679 mmHg 75%
20:00 +8°C° 0 mm 3 mps 679 mmHg 79%
21:00 +8°C° 0 mm 3 mps 679 mmHg 81%
22:00 +7°C° 0 mm 3 mps 678 mmHg 83%
23:00 +7°C° 0 mm 3 mps 678 mmHg 85%
Show more

We Need Your Consent

Meteoprog and our Service Providers may store and access personal data such as cookies, device identifiers or other similar technologies on your device and process such data to personalise content and ads, as well as provide social media features and to analyse the traffic.

  • Store and/or access information on your device

    Cookies, device identifiers or other information can be stored or accessed on your device for the purposes indicated above.

  • Personalised ads and content, ad and content measurement, audience insights, and products development

    Ads and content can be personalised based on a profile. More data can be added to better personalise ads and content. Ad and content performance can be measured. Insights about the audience who saw the ads and content can be derived. Such data can be used to develop or improve user’s experience, systems and software.

By clicking ‘I Agree’ you will allow the use of indicated cookies, device identifiers, web beacons or other similar technologies. Your settings can be changed in the browser on your device.

For certain purposes, legitimate interests may be relied on, rather than consent. You can read more about this in our Privacy and Cookie Policy.